Вернуться в каталог

SL-12 R/B(2)

АктивенGEO
NORAD 14114·ROCKET BODY·🇷🇺 Russia

Запущен May 17, 1982 с Baikonur Cosmodrome

Loading…

TLE

СвежийSource: Space-Track

Эпоха: Sep 14, 2026, 22:19 UTC

1 14114U 82044F   26257.93006078 -.00000075  00000-0  00000-0 0  9997
2 14114   7.9838 295.7275 0015666 206.1811 179.4843  1.00274986 48249

Отслеживайте SL-12 R/B(2) в реальном времени с AllMySat

Download on the App Store